Regional Weather Roundup
Issued by NWS

Home | Current Version | Previous Version | Text Only | Print | Product List | Glossary Off
Versions: 1 2 3 4 5 6 7 8 9 10 11 12 13 14 15 16 17 18 19 20 21 22 23 24 25 26 27 28 29 30 31 32 33 34 35 36 37 38 39 40 41 42 43 44 45 46 47 48 49 50

000
ASUS45 KABQ 211310
RWRNM
WEATHER ROUNDUP FOR NEW MEXICO
NATIONAL WEATHER SERVICE ALBUQUERQUE NM
600 AM MST SUN DEC 21 2014

NOTE: "FAIR" MEANS FEW OR NO CLOUDS BELOW 12,000 FEET AGL WITH NO
       SIGNIFICANT WEATHER OR OBSTRUCTIONS TO VISION.

      THIS PRODUCT IS RELEASED AS TWO VERSIONS.  ONE VERSION NEAR
      THE TOP OF THE HOUR CONTAINING PRELIMINARY DATA FROM ALBUQUERQUE
      AND OTHER STATIONS.  A FINAL VERSION WITH ADDITIONAL DATA IS
      ISSUED ABOUT 10 MINUTES AFTER THE HOUR.

NMZ501-503-504-510>518-211400-
NORTHWEST PLATEAU/NORTHCENTRAL MOUNTAINS

CITY           SKY/WX    TMP DP  RH WIND       PRES   REMARKS
FARMINGTON     CLEAR     28  26  92 NW3       30.05S
LOS ALAMOS     PTCLDY    29  24  81 CALM      30.02F
SANTA FE       CLEAR     32  22  66 NW10      29.99F WCI  24
TAOS           PTCLDY    23  18  80 E3        30.01F
ANGEL FIRE     FAIR      28  21  75 W13G20    29.97F WCI  17

$$
NMZ402-403-502-505>509-211400-
WESTCENTRAL MOUNTAINS/SOUTHWEST MOUNTAINS

CITY           SKY/WX    TMP DP  RH WIND       PRES   REMARKS
GALLUP         PTCLDY    28  24  85 CALM      30.08F
GRANTS         CLOUDY    31  26  81 NW7G17    30.08F WCI  24
SILVER CITY    CLEAR     36  28  75 NW12      30.09S WCI  27

$$
NMZ407-409-411-412-211400-
SOUTHERN DESERTS

CITY           SKY/WX    TMP DP  RH WIND       PRES   REMARKS
LORDSBURG      FAIR      32  30  93 W8        30.10S WCI  25
DEMING         CLEAR     34  29  82 SW8       30.07S WCI  27
LAS CRUCES     PTCLDY    32  29  88 NW5       30.07R WCI  27
HOLLOMAN AFB   MOCLDY    28  24  84 CALM      30.05R
ALAMOGORDO     PTCLDY    28  23  80 NE6       30.06R WCI  22
T OR C         CLEAR     31  23  72 NW3       30.05R

$$
NMZ519>523-211400-
CENTRAL VALLEYS/CENTRAL HIGHLANDS

CITY           SKY/WX    TMP DP  RH WIND       PRES   REMARKS
ALBUQUERQUE    PTCLDY    30  24  78 SE3       30.05F
DOUBLE EAGLE   MOCLDY    32  27  80 NW7       30.05F WCI  26
MORIARTY ARPT  FAIR      37  24  59 N20G32    29.99F WCI  26
CLINES CORNERS CLEAR     28  21  75 NW25      29.92S WCI  13
BELEN          FAIR      23  23  97 NW6       30.06S WCI  16
SOCORRO        FAIR      26  22  87 E3        30.06S

$$
NMZ524>526-539-540-211400-
SOUTHCENTRAL MOUNTAINS

CITY           SKY/WX    TMP DP  RH WIND       PRES   REMARKS
RUIDOSO        CLEAR     32  18  55 N5        30.04S WCI  27

$$
NMZ527>531-211400-
NORTHEAST HIGHLANDS/NORTHEAST PLAINS

CITY           SKY/WX    TMP DP  RH WIND       PRES   REMARKS
LAS VEGAS      PTCLDY    28  16  60 CALM      29.89F
RATON          PTCLDY    19  12  74 NE8       29.86R WCI   9
CLAYTON        CLEAR     34  19  54 W13       29.83R WCI  25

$$
NMZ532>537-211400-
EASTCENTRAL PLAINS

CITY           SKY/WX    TMP DP  RH WIND       PRES   REMARKS
TUCUMCARI      CLEAR     32  22  66 W10       29.85S WCI  24
CANNON AFB     CLEAR     37  23  58 W17       29.88F WCI  27
CLOVIS AIRPORT CLEAR     37  21  52 W13       29.88R WCI  29

$$
NMZ028-029-538-211400-
SOUTHEAST PLAINS

CITY           SKY/WX    TMP DP  RH WIND       PRES   REMARKS
ROSWELL        CLEAR     29  21  72 SW8       29.96S WCI  21
ARTESIA        CLEAR     32  23  69 SW10      29.98S WCI  24
CARLSBAD       PTCLDY    31  24  75 NW5       29.97R WCI  26
HOBBS          CLEAR     34  34 100 SW5       29.96F WCI  30


$$


USA.gov is the U.S. government's official web portal to all federal, state and local government web resources and services.